Date String (YYYY-MM-DD hh:mm:ss) UTC,Instrument flags,Ambient pressure (hPa),Sample flow (lpm),Bypass flow (lpm),Sample temperature (°C),Ambient temperature (°C),ASC tube jacket temperature (°C),LED temperature (°C),Box temperature (°C),Sample RH (%),Span deviation,Mass concentration (μg/m³),Mass concentration (μg/m³),Mass concentration (μg/m³)
DateTimeUTC,F1_M11,P_M11,Q1_M11,Q2_M11,T1_M11,T2_M11,T3_M11,T4_M11,T5_M11,U1_M11,ZSPAN_M11,X2_M11,X0_M11,X1_M11
2022-01-06 04:00:00,,0824.9,5.01,0.00,21.3,22.1,00.0,30.4,23.0,05.1,0001.5,0006.39,0012.17,0005.31
2022-01-06 04:01:00,,0824.8,5.00,0.00,21.4,22.6,00.0,30.4,23.2,05.0,0001.5,0006.36,0011.87,0005.31
2022-01-06 04:02:00,,0824.9,4.99,0.00,21.4,22.1,00.0,30.4,23.1,05.0,0001.6,0006.34,0011.47,0005.31
2022-01-06 04:03:00,,0825.1,5.01,0.00,21.3,21.4,00.0,30.4,22.8,05.1,0001.3,0006.31,0010.97,0005.32
2022-01-06 04:04:00,,0825.1,5.00,0.00,21.2,20.8,00.0,30.4,22.6,05.1,0001.2,0006.32,0010.97,0005.32
2022-01-06 04:05:00,,0824.9,5.00,0.00,21.1,20.3,00.0,30.3,22.4,05.1,0001.2,0006.31,0010.90,0005.34
2022-01-06 04:06:00,,0824.9,5.00,0.00,21.0,20.4,00.0,30.3,22.3,05.1,0001.3,0006.26,0010.70,0005.33
2022-01-06 04:07:00,,0824.9,5.01,0.00,21.1,21.3,00.0,30.3,22.6,05.1,0001.5,0006.25,0010.68,0005.32
2022-01-06 04:08:00,,0824.9,4.99,0.00,21.3,22.1,00.0,30.4,23.0,05.0,0001.2,0006.26,0010.74,0005.31
2022-01-06 04:09:00,,0824.9,5.00,0.00,21.5,22.7,00.0,30.4,23.3,05.0,0001.1,0006.26,0010.77,0005.31
2022-01-06 04:10:00,,0824.9,5.01,0.00,21.5,22.5,00.0,30.4,23.3,05.0,0001.3,0006.27,0010.80,0005.31
2022-01-06 04:11:00,,0824.9,5.00,0.00,21.5,21.9,00.0,30.4,23.0,05.0,0001.3,0006.27,0010.81,0005.31
2022-01-06 04:12:00,,0824.9,4.99,0.00,21.4,21.3,00.0,30.4,22.8,05.0,0001.0,0006.27,0010.85,0005.30
2022-01-06 04:13:00,,0824.7,4.99,0.00,21.3,20.8,00.0,30.4,22.6,05.0,0001.0,0006.25,0010.83,0005.31
2022-01-06 04:14:00,,0824.7,5.00,0.00,21.1,20.3,00.0,30.4,22.4,05.1,0000.9,0006.22,0010.82,0005.30
2022-01-06 04:15:00,,0824.9,4.99,0.00,21.2,20.9,00.0,30.4,22.6,05.1,0001.0,0006.21,0010.79,0005.30
2022-01-06 04:16:00,,0824.9,5.00,0.00,21.3,21.8,00.0,30.4,22.9,05.0,0001.1,0006.19,0010.72,0005.28
2022-01-06 04:17:00,,0824.9,5.00,0.00,21.5,22.5,00.0,30.4,23.2,05.0,0001.6,0006.21,0010.76,0005.28
2022-01-06 04:18:00,,0824.9,5.01,0.00,21.6,22.9,00.0,30.5,23.4,04.9,0001.5,0006.22,0010.81,0005.29
2022-01-06 04:19:00,,0824.9,4.99,0.00,21.6,22.2,00.0,30.5,23.3,04.9,0001.8,0006.20,0010.75,0005.29
2022-01-06 04:20:00,,0824.8,5.00,0.00,21.5,21.5,00.0,30.5,23.0,04.9,0001.9,0006.18,0010.69,0005.28
2022-01-06 04:21:00,,0824.8,5.00,0.00,21.4,20.8,00.0,30.4,22.7,05.0,0002.0,0006.15,0010.53,0005.26
2022-01-06 04:22:00,,0824.9,5.00,0.00,21.2,20.2,00.0,30.4,22.5,05.0,0001.3,0006.21,0010.60,0005.26
2022-01-06 04:23:00,,0824.9,4.99,0.00,21.1,19.7,00.0,30.3,22.3,05.0,0001.5,0006.25,0010.66,0005.26
2022-01-06 04:24:00,,0825.0,5.00,0.00,21.0,19.8,00.0,30.3,22.2,05.1,0001.3,0006.29,0010.85,0005.26
2022-01-06 04:25:00,,0824.9,5.01,0.00,21.1,20.9,00.0,30.3,22.5,05.1,0001.2,0006.33,0011.00,0005.26
2022-01-06 04:26:00,,0825.2,4.99,0.00,21.2,21.9,00.0,30.4,22.9,05.0,0001.3,0006.34,0011.02,0005.27
2022-01-06 04:27:00,,0825.2,5.00,0.00,21.4,22.5,00.0,30.4,23.2,05.0,0001.4,0006.34,0011.34,0005.29
2022-01-06 04:28:00,,0825.0,5.00,0.00,21.4,22.1,00.0,30.4,23.1,05.0,0001.3,0006.37,0011.71,0005.29
2022-01-06 04:29:00,,0824.9,5.00,0.00,21.3,21.4,00.0,30.4,22.9,05.0,0001.4,0006.40,0011.77,0005.28
2022-01-06 04:30:00,,0825.1,5.01,0.00,21.2,20.7,00.0,30.4,22.6,05.0,0001.2,0006.38,0011.96,0005.27
2022-01-06 04:31:00,,0825.1,4.99,0.00,21.1,20.2,00.0,30.3,22.4,05.0,0000.9,0006.38,0012.16,0005.27
2022-01-06 04:32:00,,0824.9,5.01,0.00,21.0,20.0,00.0,30.3,22.3,05.1,0000.9,0006.41,0012.24,0005.28
2022-01-06 04:33:00,,0824.9,4.99,0.00,21.0,20.5,00.0,30.3,22.4,05.1,0001.3,0006.39,0012.37,0005.28
2022-01-06 04:34:00,,0825.0,5.01,0.00,21.1,21.5,00.0,30.3,22.7,05.0,0001.4,0006.38,0012.51,0005.28
2022-01-06 04:35:00,,0825.0,5.00,0.00,21.3,22.3,00.0,30.3,23.1,05.0,0001.4,0006.39,0012.45,0005.27
2022-01-06 04:36:00,,0824.9,5.00,0.00,21.5,22.8,00.0,30.4,23.3,05.0,0001.5,0006.37,0012.33,0005.25
2022-01-06 04:37:00,,0824.9,4.99,0.00,21.5,22.2,00.0,30.4,23.2,04.9,0001.7,0006.34,0012.25,0005.23
2022-01-06 04:38:00,,0824.9,5.00,0.00,21.4,21.6,00.0,30.4,22.9,05.0,0001.6,0006.31,0011.84,0005.21
2022-01-06 04:39:00,,0824.9,5.00,0.00,21.3,21.0,00.0,30.4,22.7,05.0,0000.7,0006.27,0011.51,0005.21
2022-01-06 04:40:00,,0824.9,5.01,0.00,21.2,20.5,00.0,30.3,22.5,05.0,0000.1,0006.26,0011.48,0005.21
2022-01-06 04:41:00,,0824.9,5.00,0.00,21.0,20.1,00.0,30.3,22.2,05.1,0000.5,0006.28,0011.32,0005.22
2022-01-06 04:42:00,,0824.9,4.98,0.00,21.0,20.5,00.0,30.3,22.3,05.1,0001.1,0006.32,0011.18,0005.23
2022-01-06 04:43:00,,0825.1,5.01,0.00,21.1,21.4,00.0,30.3,22.6,05.1,0000.9,0006.29,0011.15,0005.23
2022-01-06 04:44:00,,0825.1,5.00,0.00,21.3,22.2,00.0,30.3,23.0,05.0,0001.3,0006.23,0010.86,0005.23
2022-01-06 04:45:00,,0824.9,5.01,0.00,21.4,22.8,00.0,30.4,23.2,05.0,0001.5,0006.22,0010.82,0005.22
2022-01-06 04:46:00,,0824.9,4.99,0.00,21.5,22.4,00.0,30.4,23.1,05.0,0001.9,0006.20,0010.71,0005.24
2022-01-06 04:47:00,,0824.9,5.00,0.00,21.3,21.7,00.0,30.4,22.8,05.0,0001.7,0006.20,0010.72,0005.26
2022-01-06 04:48:00,,0824.9,4.99,0.00,21.2,21.2,00.0,30.4,22.6,05.0,0001.2,0006.18,0011.20,0005.27
2022-01-06 04:49:00,,0825.1,5.00,0.00,21.1,20.5,00.0,30.3,22.3,05.0,0001.2,0006.20,0011.37,0005.28
2022-01-06 04:50:00,,0825.2,5.01,0.00,21.0,20.1,00.0,30.3,22.1,05.1,0001.9,0006.26,0011.49,0005.31
2022-01-06 04:51:00,,0824.9,4.98,0.00,20.9,20.4,00.0,30.2,22.2,05.1,0002.7,0006.25,0011.46,0005.33
2022-01-06 04:52:00,,0824.9,5.01,0.00,21.0,21.3,00.0,30.3,22.6,05.0,0002.8,0006.27,0011.56,0005.33
2022-01-06 04:53:00,,0825.2,5.00,0.00,21.2,22.1,00.0,30.3,22.9,05.0,0002.7,0006.29,0011.67,0005.36
2022-01-06 04:54:00,,0825.1,5.01,0.00,21.4,22.7,00.0,30.4,23.1,04.9,0002.5,0006.29,0011.63,0005.37
2022-01-06 04:55:00,,0824.9,4.99,0.00,21.4,22.2,00.0,30.4,23.0,04.9,0002.6,0006.34,0011.79,0005.38
2022-01-06 04:56:00,,0825.0,5.01,0.00,21.3,21.6,00.0,30.4,22.7,04.9,0002.1,0006.38,0011.85,0005.40
2022-01-06 04:57:00,,0825.2,5.01,0.00,21.2,20.9,00.0,30.3,22.5,04.9,0001.6,0006.32,0011.75,0005.38
2022-01-06 04:58:00,,0824.9,4.99,0.00,21.0,20.6,00.0,30.3,22.3,04.9,0001.5,0006.26,0011.63,0005.36
2022-01-06 04:59:00,,0824.8,5.00,0.00,20.9,20.4,00.0,30.2,22.1,05.0,0001.7,0006.24,0011.28,0005.35
